SAS1752 EFIV-ENKR

Flight info

Callsign SAS1752
Flight time 0h 27m
Altitude 23000
Route NEKUX DCT SIVNU
Aircraft A320/M-SDE3FGHIRWY/LB1

Departure

Time 2026-04-24 23:13
Airport Ivalo Airport (EFIV)

Arrival

Time 2026-04-24 23:41
Airport Kirkenes Airport, Høybuktmoen (ENKR)
Time Latitude Longitude Altitude Speed Heading
2026-04-24 22:41 68.60887 27.41929 471 ft 0 kts 136°
2026-04-24 23:01 68.60896 27.41905 469 ft 2 kts 136°
2026-04-24 23:01 68.60908 27.41874 472 ft 2 kts 136°
2026-04-24 23:02 68.60919 27.41843 469 ft 2 kts 117°
2026-04-24 23:02 68.60925 27.41801 469 ft 2 kts 87°
2026-04-24 23:02 68.60922 27.41758 471 ft 2 kts 57°
2026-04-24 23:02 68.60911 27.41725 474 ft 2 kts 44°
2026-04-24 23:03 68.60902 27.41701 468 ft 0 kts 45°
2026-04-24 23:05 68.60911 27.41726 474 ft 4 kts 44°
2026-04-24 23:05 68.60941 27.41720 471 ft 6 kts 333°
2026-04-24 23:06 68.60957 27.41682 476 ft 0 kts 316°
2026-04-24 23:06 68.60959 27.41668 476 ft 3 kts 301°
2026-04-24 23:06 68.60976 27.41634 474 ft 0 kts 316°
2026-04-24 23:09 68.60978 27.41629 476 ft 3 kts 316°
2026-04-24 23:10 68.61010 27.41543 472 ft 9 kts 316°
2026-04-24 23:10 68.61073 27.41546 476 ft 12 kts 39°
2026-04-24 23:10 68.61138 27.41736 476 ft 15 kts 46°
2026-04-24 23:10 68.61221 27.41975 472 ft 19 kts 46°
2026-04-24 23:11 68.61319 27.42266 476 ft 23 kts 46°
2026-04-24 23:11 68.61411 27.42574 474 ft 18 kts 81°
2026-04-24 23:11 68.61468 27.42678 472 ft 5 kts 295°
2026-04-24 23:11 68.61449 27.42637 472 ft 5 kts 216°
2026-04-24 23:12 68.61435 27.42602 476 ft 0 kts 225°
2026-04-24 23:12 68.61430 27.42589 474 ft 9 kts 225°
2026-04-24 23:12 68.61217 27.41962 472 ft 81 kts 226°
2026-04-24 23:13 68.60694 27.40419 477 ft 137 kts 227°
2026-04-24 23:13 68.60000 27.38389 858 ft 148 kts 228°
2026-04-24 23:13 68.59299 27.36329 1557 ft 148 kts 231°
2026-04-24 23:13 68.58574 27.34173 2048 ft 164 kts 233°
2026-04-24 23:14 68.57750 27.31726 2402 ft 184 kts 232°
2026-04-24 23:14 68.56859 27.29120 3021 ft 189 kts 232°
2026-04-24 23:14 68.55959 27.26510 3720 ft 190 kts 231°
2026-04-24 23:14 68.55048 27.23867 4398 ft 192 kts 231°
2026-04-24 23:15 68.54125 27.21188 5059 ft 195 kts 231°
2026-04-24 23:15 68.53188 27.18475 5788 ft 197 kts 231°
2026-04-24 23:15 68.52240 27.15738 6432 ft 200 kts 232°
2026-04-24 23:15 68.51514 27.12594 7066 ft 194 kts 262°
2026-04-24 23:16 68.51563 27.09060 7675 ft 189 kts 294°
2026-04-24 23:16 68.52349 27.06085 7975 ft 204 kts 320°
2026-04-24 23:16 68.53432 27.03387 8676 ft 212 kts 320°
2026-04-24 23:16 68.54519 27.00657 9603 ft 213 kts 320°
2026-04-24 23:17 68.55803 26.98567 10380 ft 216 kts 346°
2026-04-24 23:17 68.57325 26.98637 11016 ft 232 kts 15°
2026-04-24 23:17 68.58740 27.01213 11354 ft 262 kts 42°
2026-04-24 23:17 68.60060 27.04982 11666 ft 286 kts 44°
2026-04-24 23:18 68.61469 27.09144 11929 ft 310 kts 44°
2026-04-24 23:18 68.62957 27.13582 12126 ft 333 kts 45°
2026-04-24 23:18 68.64607 27.18501 12620 ft 346 kts 45°
2026-04-24 23:18 68.66324 27.23167 13259 ft 350 kts 36°
2026-04-24 23:19 68.68352 27.26922 13895 ft 353 kts 30°
2026-04-24 23:19 68.70437 27.30573 14578 ft 357 kts 31°
2026-04-24 23:19 68.72553 27.34261 15238 ft 360 kts 31°
2026-04-24 23:19 68.74675 27.37966 15886 ft 364 kts 31°
2026-04-24 23:20 68.76850 27.41786 16563 ft 368 kts 31°
2026-04-24 23:20 68.79020 27.45611 17233 ft 372 kts 31°
2026-04-24 23:20 68.81212 27.49482 17918 ft 376 kts 31°
2026-04-24 23:20 68.83425 27.53404 18524 ft 380 kts 31°
2026-04-24 23:21 68.85657 27.57380 19139 ft 384 kts 31°
2026-04-24 23:21 68.87915 27.61407 19758 ft 387 kts 31°
2026-04-24 23:21 68.90221 27.65533 20376 ft 391 kts 31°
2026-04-24 23:21 68.92513 27.69670 20956 ft 395 kts 31°
2026-04-24 23:22 68.94823 27.73851 21513 ft 398 kts 31°
2026-04-24 23:22 68.97153 27.78091 22050 ft 402 kts 32°
2026-04-24 23:22 68.98628 27.81235 22391 ft 406 kts 37°
2026-04-24 23:22 69.01544 27.88055 22617 ft 415 kts 38°
2026-04-24 23:23 69.03024 27.91523 22612 ft 424 kts 38°
2026-04-24 23:23 69.05307 27.96882 22604 ft 431 kts 38°
2026-04-24 23:23 69.07600 28.02298 22607 ft 433 kts 38°
2026-04-24 23:23 69.09933 28.07837 22605 ft 433 kts 38°
2026-04-24 23:24 69.12232 28.13293 22599 ft 433 kts 38°
2026-04-24 23:24 69.14534 28.18757 22602 ft 434 kts 38°
2026-04-24 23:24 69.16835 28.24228 22605 ft 432 kts 38°
2026-04-24 23:24 69.19099 28.29635 22339 ft 422 kts 38°
2026-04-24 23:25 69.21312 28.34949 21636 ft 415 kts 39°
2026-04-24 23:25 69.23492 28.40198 20963 ft 409 kts 39°
2026-04-24 23:25 69.25636 28.45379 20284 ft 404 kts 39°
2026-04-24 23:25 69.27760 28.50519 19633 ft 400 kts 39°
2026-04-24 23:26 69.29863 28.55619 19008 ft 397 kts 39°
2026-04-24 23:26 69.31950 28.60693 18388 ft 394 kts 39°
2026-04-24 23:26 69.34016 28.65722 17819 ft 391 kts 39°
2026-04-24 23:26 69.36071 28.70731 17178 ft 388 kts 39°
2026-04-24 23:27 69.38126 28.75758 16605 ft 383 kts 39°
2026-04-24 23:27 69.40129 28.80675 16029 ft 378 kts 40°
2026-04-24 23:27 69.42101 28.85521 15465 ft 373 kts 40°
2026-04-24 23:27 69.44051 28.90333 14879 ft 369 kts 40°
2026-04-24 23:28 69.45974 28.95098 14274 ft 365 kts 40°
2026-04-24 23:28 69.47879 28.99830 13677 ft 361 kts 41°
2026-04-24 23:28 69.49761 29.04521 13030 ft 359 kts 41°
2026-04-24 23:28 69.51632 29.09189 12423 ft 355 kts 41°
2026-04-24 23:29 69.53476 29.13803 11795 ft 351 kts 41°
2026-04-24 23:29 69.55303 29.18386 11183 ft 348 kts 41°
2026-04-24 23:29 69.57076 29.23036 10565 ft 344 kts 47°
2026-04-24 23:29 69.58547 29.28410 10326 ft 331 kts 56°
2026-04-24 23:30 69.59813 29.33734 10192 ft 316 kts 56°
2026-04-24 23:30 69.61031 29.38819 10046 ft 304 kts 56°
2026-04-24 23:30 69.62204 29.43721 9913 ft 292 kts 56°
2026-04-24 23:30 69.63337 29.48469 9690 ft 285 kts 56°
2026-04-24 23:31 69.64447 29.53132 9455 ft 280 kts 56°
2026-04-24 23:31 69.65541 29.57741 9319 ft 279 kts 56°
2026-04-24 23:31 69.66630 29.62352 9177 ft 278 kts 56°
2026-04-24 23:31 69.67721 29.66987 9026 ft 278 kts 56°
2026-04-24 23:32 69.68811 29.71632 8593 ft 280 kts 55°
2026-04-24 23:32 69.69896 29.76275 8239 ft 277 kts 55°
2026-04-24 23:32 69.70980 29.80917 7728 ft 274 kts 54°
2026-04-24 23:32 69.72029 29.85418 7180 ft 268 kts 54°
2026-04-24 23:33 69.73083 29.89798 6798 ft 264 kts 52°
2026-04-24 23:33 69.74182 29.94047 6663 ft 264 kts 50°
2026-04-24 23:33 69.75295 29.98253 6331 ft 262 kts 51°
2026-04-24 23:33 69.76402 30.02440 5885 ft 260 kts 51°
2026-04-24 23:34 69.77485 30.06557 5367 ft 255 kts 51°
2026-04-24 23:34 69.78547 30.10617 4924 ft 251 kts 51°
2026-04-24 23:34 69.79564 30.14549 4822 ft 238 kts 51°
2026-04-24 23:34 69.80529 30.18305 4761 ft 227 kts 51°
2026-04-24 23:35 69.81448 30.21876 4675 ft 216 kts 51°
2026-04-24 23:35 69.82319 30.25269 4589 ft 205 kts 50°
2026-04-24 23:35 69.83149 30.28527 4510 ft 199 kts 53°
2026-04-24 23:35 69.83624 30.32274 4374 ft 203 kts 84°
2026-04-24 23:36 69.83330 30.36261 4222 ft 206 kts 116°
2026-04-24 23:36 69.82344 30.39191 4069 ft 205 kts 149°
2026-04-24 23:36 69.80980 30.40180 3929 ft 204 kts 183°
2026-04-24 23:36 69.79628 30.39001 3790 ft 201 kts 217°
2026-04-24 23:37 69.78702 30.36089 3656 ft 196 kts 249°
2026-04-24 23:37 69.78205 30.32442 3526 ft 195 kts 254°
2026-04-24 23:37 69.77265 30.25124 3165 ft 185 kts 253°
2026-04-24 23:38 69.76819 30.21687 2960 ft 183 kts 255°
2026-04-24 23:38 69.76375 30.18272 2671 ft 180 kts 255°
2026-04-24 23:38 69.75937 30.14905 2378 ft 178 kts 255°
2026-04-24 23:38 69.75504 30.11587 2090 ft 173 kts 255°
2026-04-24 23:39 69.75097 30.08494 1836 ft 154 kts 256°
2026-04-24 23:39 69.74730 30.05700 1576 ft 144 kts 257°
2026-04-24 23:39 69.74371 30.02956 1348 ft 141 kts 256°
2026-04-24 23:39 69.74028 30.00338 1106 ft 139 kts 256°
2026-04-24 23:40 69.73688 29.97756 845 ft 139 kts 251°
2026-04-24 23:40 69.73352 29.95191 659 ft 133 kts 259°
2026-04-24 23:40 69.73003 29.92569 446 ft 141 kts 252°
2026-04-24 23:40 69.72662 29.89980 298 ft 130 kts 249°
2026-04-24 23:41 69.72403 29.87959 299 ft 69 kts 249°
2026-04-24 23:41 69.72308 29.87235 295 ft 29 kts 250°
2026-04-24 23:41 69.72232 29.86755 298 ft 24 kts 239°
2026-04-24 23:41 69.72222 29.86481 301 ft 3 kts 349°
2026-04-24 23:42 69.72225 29.86544 303 ft 5 kts 95°
2026-04-24 23:42 69.72239 29.86716 300 ft 12 kts 70°
2026-04-24 23:42 69.72275 29.86990 296 ft 18 kts 69°
2026-04-24 23:42 69.72324 29.87357 294 ft 21 kts 69°
2026-04-24 23:43 69.72374 29.87754 297 ft 18 kts 71°
2026-04-24 23:43 69.72351 29.87985 295 ft 14 kts 160°
2026-04-24 23:43 69.72289 29.88054 299 ft 9 kts 159°
2026-04-24 23:43 69.72216 29.88121 296 ft 9 kts 163°
2026-04-24 23:44 69.72175 29.88163 296 ft 0 kts 159°
2026-04-24 23:44 69.72175 29.88164 296 ft 0 kts 159°